Vertical_Velocity
-2 -3 -2 -2 -3 -3 -3 -0 -1 -2 -4 -2 -1 -1 -1 -0 -0 -0 -1 -2 -3 -4 -3 -2 -2 -1 -1 -1 -1 -2 -3 -3 -3 -3 -2 -2 -2 -3 -3 -3 -3 -3 -3 -2 -2 -1 -1 -1 -2 -2 -2 -1 -0 0 0 -0 1 1 0 -1 -1 -2 -2 -2 -2 -2 -3 -3 -2 -2 -2 -3 -2 -1 -0 -2 -2 -3 -2 -1 -1 -1 -1 -2 -2 -2
-2 -3 -2 -2 -2 -3 -3 -1 -0 -1 -4 -4 -3 -3 -2 -1 -1 -0 -0 -0 -1 -2 -3 -3 -2 -1 -0 -0 -0 -1 -2 -2 -2 -3 -2 -2 -3 -3 -3 -2 -2 -2 -2 -1 -1 -1 -1 -1 -2 -2 -1 -1 -0 0 0 0 1 1 0 0 -0 -1 -1 -1 -1 -2 -2 -2 -2 -2 -3 1 4 6 6 4 3 3 3 1 -0 -1 -1 -2 -1 0
-2 -4 -3 -2 -2 -2 -3 -2 -1 -0 -2 -4 -4 -3 -3 -3 -2 -1 -1 -1 -0 1 -0 -2 -2 -1 0 1 0 -0 -0 -1 -1 -2 -2 -2 -2 -2 -3 -2 -2 -2 -1 -1 -0 -0 -0 -1 -1 -0 0 0 0 1 1 1 1 1 1 2 2 1 0 -0 -1 -1 -2 -2 -2 -3 -4 -0 3 6 6 6 6 6 6 3 2 0 -1 -1 0 3
-1 -4 -4 -3 -2 -1 0 -0 -1 -1 -1 -3 -3 -3 -2 -3 -3 -2 -1 -1 -1 0 2 1 -0 -1 0 1 1 1 0 0 -0 -1 -2 -2 -2 -3 -3 -3 -3 -2 -2 -1 -0 -0 -0 -0 0 1 2 2 1 1 2 1 1 1 2 4 5 5 2 1 -0 -1 -2 -2 -2 -2 -2 -2 0 3 6 6 6 6 6 6 6 5 2 -0 -0 2
-1 -3 -5 -4 -4 -3 -0 1 0 -1 -2 -1 -2 -2 -1 -1 -2 -2 -1 -0 -0 0 1 1 1 0 0 1 1 1 1 1 1 -0 -1 -2 -2 -2 -2 -3 -3 -3 -2 -1 -1 -0 -0 0 1 1 1 1 2 2 3 3 2 2 2 3 4 3 1 0 0 0 0 0 1 2 3 1 1 2 4 4 3 3 2 4 6 6 5 3 2 2
-1 -2 -3 -4 -4 -4 -3 0 1 -0 -3 -2 -1 0 -0 -0 -1 -2 -2 -1 -0 -0 1 1 1 1 1 1 0 -0 -0 0 1 1 0 -0 -1 -1 -1 -1 -1 -1 -1 -1 -0 -0 -0 -0 0 1 1 1 2 2 3 3 3 2 1 1 0 -0 -1 -1 -0 1 3 4 4 4 4 4 2 1 1 -0 -1 -1 -1 1 4 5 6 6 5 3
-3 -2 -1 -4 -4 -3 -2 -0 1 1 -2 -4 -4 -1 1 1 1 -0 -0 0 -0 -1 -2 1 2 2 1 1 1 0 -1 -1 -1 1 2 2 1 1 0 1 1 1 1 0 0 1 1 0 0 0 1 1 1 2 2 2 2 2 1 0 -1 -1 -2 -1 -1 -0 2 3 3 2 2 2 1 1 1 -1 -2 -3 -2 -0 1 3 4 5 5 4
-6 -4 -0 -3 -4 -4 -1 2 3 2 -0 -3 -4 -5 -4 0 2 1 0 2 2 1 -2 -1 0 2 1 -0 -1 -1 0 -0 -1 -1 1 3 3 2 0 1 2 3 3 2 1 2 2 1 1 1 1 1 1 2 2 2 2 1 1 0 -0 -1 -1 -2 -2 -2 -1 -1 -1 -1 -1 -1 -0 1 3 1 -1 -2 -2 -2 -1 -0 1 2 2 2
-5 -4 -2 -0 -2 -4 -5 0 4 5 1 -1 -3 -5 -8 -6 -3 0 1 1 2 2 -0 -2 -2 -1 2 1 -2 -4 -2 2 2 1 -1 1 2 3 1 -0 0 2 3 3 3 3 3 2 2 2 1 1 2 2 2 2 1 1 1 0 -0 -1 -2 -4 -4 -4 -4 -4 -3 -3 -2 -3 -1 1 4 3 2 1 1 -1 -1 -2 -2 -3 -3 -2
-2 -2 -3 -1 1 -0 -4 -4 0 4 3 1 -0 -1 -5 -9 -9 -6 -1 1 2 2 1 -1 -4 -5 -2 3 3 -1 -6 -2 3 5 2 0 1 2 2 -0 -1 -1 1 2 3 3 3 2 2 1 1 1 1 1 1 0 0 -0 -0 0 0 -0 -1 -2 -3 -4 -5 -5 -4 -5 -6 -7 -6 -3 1 1 1 0 0 -0 -1 -1 -3 -4 -5 -5
-2 -1 -1 -1 -0 1 1 -2 -2 -0 1 -0 1 3 4 -3 -9 -12 -10 -4 -2 -1 -1 1 -1 -4 -8 -3 3 4 -3 -7 -4 0 3 1 1 1 1 0 -0 -1 -1 1 2 2 2 1 1 -0 -1 -0 -0 -1 -1 -2 -2 -2 -1 -1 -0 0 0 1 0 -1 -2 -3 -5 -7 -9 -9 -9 -8 -5 -5 -4 -4 -3 -2 -2 -2 -3 -4 -4 -5
-1 -1 -1 -1 -1 -1 -1 -1 -0 -0 -1 -3 -4 -2 3 3 -2 -9 -14 -10 -7 -6 -7 -2 2 2 -4 -6 -3 1 0 -5 -8 -7 -4 -1 -1 -1 -2 -2 -2 -1 -1 -0 1 1 1 1 -0 -1 -2 -2 -2 -3 -3 -3 -3 -3 -3 -3 -3 -3 -3 -3 -3 -3 -3 -4 -5 -6 -7 -8 -8 -8 -7 -6 -5 -4 -4 -4 -3 -3 -3 -3 -4 -4
-0 -0 -2 -2 -2 -1 -2 -3 -3 -3 -1 -4 -7 -8 -6 -1 -2 -5 -9 -8 -6 -7 -11 -9 -3 2 1 -2 -4 -4 -4 -6 -8 -7 -6 -3 -2 -2 -4 -4 -4 -3 -3 -2 -1 -0 0 0 -1 -2 -2 -3 -3 -3 -3 -3 -3 -3 -3 -3 -4 -4 -5 -5 -5 -5 -5 -5 -5 -5 -5 -5 -5 -5 -5 -5 -4 -4 -4 -4 -4 -4 -4 -4 -4 -4
-2 -2 -3 -3 -3 -3 -2 -3 -4 -4 -3 -4 -6 -7 -7 -4 -4 -6 -9 -6 -3 -2 -7 -9 -7 -4 -2 -3 -3 -4 -4 -7 -10 -10 -7 -2 1 0 -2 -4 -4 -3 -2 -2 -3 -2 -0 -0 -2 -3 -2 -2 -2 -2 -1 -1 -1 -1 -2 -2 -3 -4 -4 -4 -5 -5 -5 -4 -4 -3 -3 -3 -3 -3 -3 -3 -3 -3 -4 -4 -4 -4 -5 -5 -5 -5
-3 -4 -6 -5 -4 -3 -2 -4 -4 -4 -1 -1 -4 -6 -7 -4 -2 -3 -8 -9 -6 -4 -6 -9 -8 -5 -0 -1 -3 -4 -3 -4 -8 -11 -10 -4 1 3 1 -2 -4 -3 -0 -1 -2 -2 -0 -0 -2 -4 -3 -2 -1 -1 -1 -1 -2 -2 -2 -3 -3 -4 -4 -4 -4 -4 -3 -2 -2 -2 -2 -2 -2 -2 -1 -1 -2 -2 -2 -2 -3 -5 -6 -5 -5 -5
-4 -4 -5 -6 -5 -2 -0 -1 -3 -4 -3 -1 -2 -4 -6 -6 -3 -1 -3 -7 -9 -9 -8 -12 -14 -12 -4 3 4 2 -1 -2 -5 -9 -11 -8 -3 2 2 -2 -6 -7 -3 -1 -1 -2 -2 -1 -1 -1 -2 -1 -1 -1 -1 -2 -3 -3 -3 -4 -4 -4 -4 -4 -3 -3 -2 -2 -2 -2 -2 -1 -1 -1 -1 -1 -0 -0 0 -1 -3 -4 -4 -3 -3 -4
-3 -4 -4 -4 -4 -3 -0 1 1 -0 -3 -4 -3 -3 -3 -5 -6 -5 -3 -5 -7 -8 -7 -8 -12 -17 -18 -9 0 6 4 -0 -5 -9 -10 -8 -5 -0 3 -1 -6 -9 -7 -2 -1 -1 -2 -2 -2 -1 -1 -1 -1 -2 -3 -3 -4 -4 -4 -4 -4 -4 -3 -2 -2 -2 -2 -2 -2 -2 -1 -0 -0 -0 -0 -0 -0 -1 -1 -2 -3 -3 -3 -2 -1 -1
-2 -3 -4 -3 -3 -3 -2 -1 1 2 1 -3 -5 -5 -2 -1 -3 -5 -5 -4 -5 -6 -6 -5 -6 -8 -14 -16 -10 -1 5 1 -5 -10 -11 -9 -5 -0 4 1 -3 -6 -6 -3 -1 -1 -1 -2 -2 -2 -2 -2 -2 -3 -3 -4 -4 -4 -4 -3 -3 -2 -2 -2 -2 -2 -2 -1 -1 -1 -0 0 0 0 -0 -0 -1 -2 -2 -3 -3 -2 -1 2 2 1
-4 -2 -3 -4 -3 -1 0 -1 -2 -2 -1 -2 -4 -6 -6 -4 -3 -2 -3 -3 -2 -3 -4 -5 -4 -4 -4 -8 -7 -4 2 1 -4 -8 -10 -9 -6 -1 4 1 -3 -5 -3 -1 -0 -0 -1 -1 -1 -0 -1 -2 -3 -3 -4 -4 -4 -4 -3 -2 -2 -2 -2 -2 -2 -1 -1 -1 -0 0 1 1 0 -0 -0 -0 -1 -1 -2 -2 -3 -3 -2 -1 -1 -1
-4 -2 -1 -5 -6 -4 1 2 1 -2 -4 -4 -4 -5 -7 -7 -6 -4 -3 -2 -1 -0 -1 -2 -4 -4 -3 -6 -6 -5 -1 -2 -5 -9 -9 -6 -4 -0 4 0 -4 -6 -4 -0 1 1 -0 -0 -0 0 -0 -1 -2 -3 -3 -3 -3 -2 -2 -1 -1 -1 -1 -1 -1 -1 -1 -0 0 1 1 0 -0 -0 -1 -1 -1 -1 -1 -1 -2 -2 -2 -2 -1 -1
-4 -1 2 -2 -6 -7 -4 1 2 1 -3 -4 -4 -4 -5 -6 -6 -5 -5 -4 -3 -2 -2 -3 -4 -4 -3 -4 -4 -4 -1 -2 -6 -11 -12 -8 -3 1 5 0 -3 -5 -4 -1 1 2 1 1 1 0 -0 -1 -2 -3 -3 -2 -2 -2 -1 -1 -1 -1 -1 -1 -1 -1 -0 0 0 0 -0 -0 -0 -0 -0 -1 -1 -1 -1 -1 -1 -1 -1 -1 -1 -1
-6 -3 2 1 -2 -6 -6 -3 1 2 -0 -3 -4 -4 -4 -4 -5 -6 -6 -5 -5 -4 -3 -2 -2 -1 -0 -1 -1 -1 1 1 -3 -7 -11 -11 -8 -3 5 1 -3 -5 -4 -1 1 2 3 2 1 1 -0 -1 -2 -2 -2 -2 -2 -2 -1 -1 -1 -1 -1 -1 -1 -0 0 0 1 0 0 0 -0 -0 -1 -1 -1 -1 -1 -1 -1 -1 -0 -1 -1 -1
-6 -4 -1 -0 -1 -2 -4 -2 0 2 1 -2 -3 -4 -4 -4 -4 -5 -6 -5 -5 -5 -4 -3 -2 -0 3 3 1 0 1 1 -1 -4 -6 -9 -9 -6 1 -1 -3 -4 -3 -0 1 1 2 3 2 1 -0 -1 -1 -2 -2 -2 -2 -2 -2 -1 -1 -1 -1 -1 -0 0 1 1 1 1 1 1 0 -0 -1 -1 -1 -1 -1 -1 -1 -1 -0 -0 -1 -1
-3 -3 -1 -0 -0 -0 -0 0 1 1 -0 -1 -3 -4 -5 -5 -5 -4 -3 -3 -3 -4 -5 -5 -4 -2 1 3 3 2 1 2 1 -2 -5 -7 -7 -4 -0 -2 -4 -5 -3 1 2 1 1 2 2 2 0 -0 -1 -2 -2 -3 -2 -2 -2 -2 -1 -1 -1 -1 -0 0 1 1 1 1 1 1 -0 -1 -1 -1 -1 -1 -1 -1 -1 -0 -0 -0 -1 -1
-1 -1 -0 0 1 1 1 1 -0 -1 -1 -2 -4 -5 -6 -5 -4 -2 -0 0 -0 -2 -4 -4 -4 -3 -1 1 1 1 2 4 3 -0 -4 -6 -6 -4 1 -0 -3 -6 -5 0 2 2 1 2 2 2 1 -0 -1 -2 -3 -3 -3 -2 -2 -1 -1 -1 -1 -1 -1 -0 -0 -0 -0 -0 -0 -1 -1 -1 -1 -1 -1 -1 -1 -1 -1 -0 -0 -0 -1 -1
-1 -1 -1 -0 -0 -0 0 -0 -0 -1 -1 -4 -6 -7 -6 -3 -1 0 1 2 1 -0 -3 -4 -4 -2 -0 1 1 -0 1 3 3 1 -1 -6 -8 -6 -0 0 -2 -5 -6 -1 1 2 0 0 1 1 1 0 -1 -2 -3 -3 -3 -2 -2 -2 -2 -2 -2 -2 -2 -1 -1 -1 -1 -2 -2 -2 -2 -1 -1 -1 -1 -1 -1 -1 -1 -1 -1 -1 -1 -1
-1 -2 -2 -2 -2 -1 -1 -1 -0 -1 -2 -4 -4 -4 -2 -1 -1 -1 -1 0 1 -0 -3 -4 -6 -6 -5 -2 -2 -1 -0 1 2 1 -0 -4 -6 -6 -3 -1 -3 -4 -5 -2 1 2 1 0 0 0 1 1 -0 -1 -2 -2 -2 -2 -1 -2 -2 -2 -2 -2 -2 -1 -1 -1 -2 -2 -2 -2 -2 -1 -1 -1 -1 -1 -1 -1 -1 -1 -0 -0 -0 0
-0 -0 -1 -1 -0 -0 0 -0 -1 -2 -3 -3 -1 -0 -0 -0 -1 -3 -4 -2 -1 -1 -3 -3 -4 -6 -7 -6 -4 -2 0 1 2 1 -1 -4 -5 -5 -3 -2 -3 -4 -5 -3 0 3 4 3 1 -0 -0 0 -0 -1 -2 -2 -1 -1 -1 -1 -1 -1 -2 -1 -1 -1 -1 -1 -1 -2 -2 -2 -1 -1 -1 -0 -0 -0 -0 -1 -1 -0 -0 -0 0 0
1 1 0 0 0 0 0 -0 -1 -3 -3 -2 -0 0 0 0 -1 -2 -4 -4 -3 -3 -4 -3 -3 -3 -5 -5 -4 -3 1 3 3 1 -2 -4 -4 -4 -1 -2 -3 -4 -4 -5 -3 2 7 6 3 0 -1 -0 -0 -1 -1 -1 -0 0 1 1 0 -0 -1 -0 -0 -0 -1 -1 -1 -1 -1 -1 -1 -1 -0 -0 -0 -0 -0 -0 -0 -0 0 -0 -0 -1
2 1 0 0 -0 -1 -1 -2 -2 -3 -2 -1 0 1 -0 -0 -1 -2 -4 -4 -4 -4 -5 -4 -4 -3 -4 -6 -7 -5 -1 4 5 2 -3 -4 -5 -4 -2 -2 -2 -2 -3 -7 -8 -4 3 7 6 3 -1 -1 -1 -1 -1 -1 0 1 1 2 1 1 -0 -0 -0 0 -0 -0 -0 -1 -1 -1 -1 -1 -0 0 0 0 0 0 0 0 0 -0 -1 -2
3 1 -0 -0 -1 -1 -2 -3 -4 -3 -1 1 1 1 -0 -1 -2 -3 -4 -4 -3 -3 -4 -4 -4 -3 -3 -5 -7 -8 -6 1 4 2 -2 -4 -5 -5 -3 -2 -2 -1 -0 -4 -8 -11 -9 -0 4 5 1 -0 -1 -1 -1 -1 -0 1 1 1 1 1 -0 -0 1 1 1 1 1 1 -0 -1 -1 -1 -1 -0 0 1 1 1 1 1 -0 -1 -1 -2
1 -0 -1 -1 -1 -1 -3 -3 -2 -0 3 2 1 -0 -1 -2 -2 -3 -2 -2 -3 -3 -4 -4 -3 -3 -2 -2 -4 -5 -6 -1 1 0 -2 -3 -5 -5 -2 -2 -2 -1 1 -0 -4 -8 -12 -10 -4 1 2 1 -0 -1 -1 -0 -0 0 0 1 0 -0 -1 -0 1 1 2 2 2 1 1 0 -0 -1 -0 -0 -0 0 1 1 2 1 -0 -1 -1 -1
-1 -1 -1 -1 -1 -1 -1 -1 1 4 6 4 1 -1 -2 -3 -3 -2 -1 -1 -2 -3 -3 -4 -4 -4 -2 -1 -1 -1 -1 1 1 -0 -2 -3 -5 -5 -4 -2 -2 -1 0 1 0 -2 -6 -9 -8 -5 -1 0 1 -0 -0 -0 -0 -0 -0 -1 -1 -1 -1 -1 -0 1 2 2 2 2 1 1 1 0 0 0 0 0 1 1 2 2 1 -0 -1 -0
-1 -1 -1 -1 0 2 3 4 6 6 6 4 1 -2 -3 -3 -2 -1 -1 -1 -2 -2 -3 -3 -4 -4 -4 -4 -3 -1 1 3 2 1 -1 -2 -3 -5 -4 -2 -2 -2 -2 -1 -0 -1 -2 -4 -5 -6 -4 -1 1 1 0 0 0 0 -0 -2 -2 -3 -3 -3 -2 -0 1 1 1 1 1 1 1 1 1 0 -0 -0 -0 0 1 1 1 1 0 -0
-1 -2 -3 -0 4 8 10 9 8 6 5 2 -0 -2 -2 -2 -1 -0 -0 -0 -1 -2 -3 -3 -3 -4 -5 -6 -6 -5 -2 1 2 1 0 -0 -2 -3 -4 -2 -2 -2 -3 -3 -2 -2 -2 -2 -2 -3 -4 -3 -0 1 1 1 1 0 -0 -1 -2 -4 -6 -5 -4 -2 -0 0 1 1 1 1 1 1 1 -0 -1 -1 -1 -1 -1 -0 -0 -0 -0 -1
-2 -3 1 8 13 16 14 10 6 4 2 -0 -1 -1 -1 -1 -0 0 1 0 -1 -2 -2 -2 -2 -2 -3 -4 -5 -6 -4 -1 0 1 0 0 -1 -2 -3 -2 -1 -2 -3 -3 -3 -3 -3 -2 -1 -1 -2 -3 -2 -0 1 2 2 1 1 -0 -2 -3 -5 -5 -4 -3 -2 -1 -0 -0 0 0 0 0 1 0 -0 -0 -1 -1 -2 -2 -2 -1 -1 -1
1 5 14 20 21 18 11 6 3 2 1 -0 -0 -1 -0 -0 -0 -0 1 0 -1 -1 -2 -2 -1 -1 -1 -2 -3 -4 -3 -2 -1 -1 -0 -0 -1 -1 -2 -1 -1 -1 -3 -3 -3 -3 -2 -2 -1 -1 -0 -1 -2 -2 -2 0 1 2 2 1 -0 -2 -3 -3 -3 -2 -2 -1 -1 -0 0 -0 -0 -0 0 1 1 0 0 -0 -1 -1 -1 -1 -1 -0
2 7 14 15 13 9 2 -1 -2 -1 -0 0 0 -0 -0 -1 -0 0 1 -0 -1 -2 -2 -2 -1 -0 -0 -1 -2 -2 -2 -1 -1 -1 -1 -1 -1 -1 -2 -2 -1 -1 -1 -2 -2 -3 -3 -3 -3 -2 -1 -0 -0 -1 -2 -2 -2 -1 0 1 1 0 -1 -2 -2 -2 -2 -1 -0 0 1 0 0 -0 -0 -0 -0 -0 0 0 0 -0 -0 -0 -0 -0
2 2 3 4 3 1 -2 -3 -3 -2 -0 1 0 -0 -1 -1 -0 0 1 -0 -1 -2 -2 -2 -1 -1 -0 -1 -1 -1 -1 -1 -1 -1 -1 -1 -1 -1 -2 -2 -2 -1 -0 -0 -1 -1 -2 -2 -3 -3 -3 -2 -1 -0 -0 -1 -3 -3 -3 -0 1 2 1 -1 -2 -2 -1 -1 -0 -0 0 1 1 0 -0 -1 -1 -2 -2 -1 -0 0 0 0 0 -0
3 2 3 3 2 0 -1 -2 -2 -1 1 0 -0 -1 -1 -0 0 0 -0 -0 -1 -1 -2 -2 -1 -1 -0 -1 -1 -2 -1 -1 -1 -1 -1 -1 -1 -2 -2 -3 -2 -1 0 1 1 -0 -1 -1 -2 -2 -3 -3 -2 -2 -1 -1 -2 -3 -4 -3 -1 1 1 -0 -1 -1 -0 -0 -1 -1 -2 -1 0 0 0 -1 -2 -3 -3 -2 -1 -1 -0 0 1 1
3 2 2 2 2 1 -0 -1 -1 -0 -0 -1 -1 -1 -0 1 1 -0 -1 -1 -0 -1 -1 -1 -1 0 1 1 -0 -2 -2 -2 -2 -2 -1 -1 -1 -1 -2 -2 -1 -1 0 1 1 0 -0 -1 -1 -2 -2 -2 -2 -2 -1 -1 -2 -3 -4 -3 -2 -1 0 0 -0 -1 -0 -0 -1 -2 -3 -2 -1 -0 0 -0 -1 -2 -3 -3 -3 -2 -1 -0 1 1
2 2 2 6 8 6 1 -1 -1 -1 -2 -1 -0 2 3 2 0 -1 -1 -0 -0 -1 -1 -1 -0 1 2 3 2 0 -1 -2 -2 -2 -2 -1 -1 -1 -1 -1 -1 -0 -0 1 1 1 -0 -1 -1 -2 -2 -2 -2 -2 -1 -1 -1 -3 -4 -4 -4 -3 -0 2 3 2 1 -0 -2 -3 -3 -3 -3 -2 -1 -1 -1 -2 -2 -3 -3 -3 -2 -1 -0 0
1 2 7 14 13 7 1 -1 -2 -3 -3 0 3 5 4 1 -1 -2 -2 -1 -0 -1 -1 -1 -0 0 1 3 3 2 1 -1 -2 -2 -1 -1 -1 -0 -0 -0 -0 -0 -0 -0 0 1 1 -0 -1 -2 -2 -2 -2 -2 -2 -1 -0 -1 -2 -4 -5 -6 -6 -3 1 3 2 1 -1 -3 -4 -4 -3 -2 -1 -1 -2 -2 -2 -2 -2 -2 -2 -1 -1 -1
1 2 8 9 6 2 -0 -2 -3 -3 0 5 6 5 3 -0 -2 -3 -2 -2 -1 -2 -2 -2 -2 -1 0 1 2 2 2 0 -1 -1 -1 -1 -1 -0 -0 -0 -1 -1 -1 -1 -0 0 2 2 1 -0 -1 -2 -2 -2 -2 -1 -0 -0 -0 -3 -4 -6 -7 -6 -5 -4 -3 -2 -1 -2 -3 -3 -3 -2 -1 -1 -2 -2 -2 -2 -2 -2 -1 -1 -1 -1
1 0 1 1 1 -0 -2 -4 -3 0 4 7 7 5 1 -1 -3 -3 -2 -2 -2 -3 -3 -3 -3 -2 -1 0 1 2 2 1 0 -1 -1 -1 -1 -1 -1 -1 -1 -2 -2 -2 -2 -0 1 1 2 1 -0 -1 -2 -2 -2 -1 -0 0 0 -1 -2 -3 -4 -5 -5 -6 -6 -4 -3 -2 -2 -2 -2 -2 -1 -1 -1 -2 -2 -2 -2 -1 -1 -1 -1 -1
2 1 1 1 1 -1 -4 -3 -0 3 7 7 6 3 0 -2 -3 -3 -2 -1 -2 -3 -3 -3 -2 -2 -1 -0 0 1 1 1 1 0 -0 -1 -1 -1 -1 -1 -1 -2 -2 -3 -3 -1 0 1 1 1 0 -0 -1 -2 -2 -2 -1 -0 -0 -1 -2 -2 -2 -2 -3 -3 -4 -4 -4 -3 -2 -1 -0 -0 0 -0 -1 -2 -2 -2 -2 -1 -1 -0 -0 -0
1 2 3 2 -0 -2 -3 -0 3 6 7 5 3 1 -1 -2 -2 -2 -2 -2 -2 -3 -3 -3 -2 -1 -1 -1 -0 -0 0 1 1 1 1 0 0 -0 -0 -0 -1 -1 -2 -3 -3 -3 -1 0 1 1 -0 -0 -0 -1 -1 -1 -1 -1 -2 -2 -2 -2 -1 -0 -0 -1 -2 -3 -4 -4 -4 -3 -1 0 1 1 -0 -1 -2 -2 -1 -1 -0 -1 -0 -0
1 2 2 1 -0 -0 2 4 6 6 5 3 1 -1 -2 -3 -2 -2 -2 -2 -2 -3 -3 -3 -2 -1 -1 -1 -1 -0 -0 0 1 1 1 1 1 1 1 1 0 -0 -2 -3 -4 -4 -3 -0 0 0 -0 -0 0 1 1 1 -0 -1 -3 -4 -3 -2 -0 0 0 0 0 -0 -1 -2 -4 -4 -3 -2 -0 0 0 -0 -1 -1 -1 -1 -0 -1 -1 -0
2 1 1 2 4 7 8 6 5 4 3 1 0 -1 -2 -3 -2 -2 -2 -2 -2 -3 -3 -3 -2 -1 -1 -0 -0 -0 -0 -0 0 0 1 1 1 1 1 1 2 1 1 -1 -4 -6 -6 -3 -0 1 1 0 1 1 2 2 0 -2 -4 -4 -3 -1 -0 -0 0 1 1 2 1 1 -1 -1 -1 -1 -1 -1 -1 -1 -1 -1 -1 -1 -1 -1 -1 -1
1 1 2 6 9 10 7 4 3 2 2 1 0 -1 -2 -2 -2 -2 -2 -2 -2 -3 -3 -3 -2 -2 -1 -1 -0 -0 -0 -0 -0 0 0 0 0 1 1 2 2 3 3 2 -0 -4 -7 -6 -3 1 2 2 1 1 1 1 -1 -2 -4 -2 -2 -1 -1 -1 0 1 1 2 2 1 1 0 0 -0 -1 -1 -1 -1 -1 -1 -1 -1 -1 -1 -1 -1
2 3 6 9 9 6 4 3 3 2 2 1 -0 -1 -1 -1 -1 -2 -2 -2 -2 -2 -3 -3 -2 -2 -2 -1 -1 -1 -0 -0 -0 -0 0 0 0 0 1 1 2 2 3 3 2 0 -3 -5 -5 -2 2 2 1 0 -0 -1 -2 -2 -2 -1 -1 -2 -1 -0 1 2 3 3 2 1 0 -0 -0 -0 -1 -1 -1 -1 -1 -1 -1 -1 -1 -1 -1 -0
Height
3033 3032 3030 3029 3027 3026 3025 3024 3022 3021 3019 3018 3016 3015 3013 3012 3010 3008 3006 3004 3002 3001 2999 2997 2996 2994 2993 2991 2989 2987 2985 2983 2981 2980 2978 2976 2974 2972 2971 2969 2967 2966 2965 2963 2961 2960 2959 2957 2956 2955 2953 2952 2951 2950 2949 2947 2946 2945 2944 2942 2941 2940 2939 2938 2937 2936 2936 2935 2935 2934 2933 2933 2933 2932 2932 2931 2930 2929 2928 2928 2927 2927 2926 2926 2926 2926
3030 3029 3027 3025 3024 3022 3021 3020 3019 3017 3015 3013 3011 3010 3008 3007 3005 3004 3002 3000 2998 2996 2995 2993 2991 2990 2989 2987 2985 2983 2981 2979 2977 2976 2974 2972 2970 2968 2967 2965 2964 2962 2961 2959 2958 2956 2955 2954 2952 2951 2950 2949 2947 2946 2945 2944 2943 2942 2940 2939 2938 2937 2936 2935 2934 2934 2933 2932 2931 2931 2930 2931 2930 2930 2929 2928 2927 2926 2925 2924 2923 2923 2923 2922 2922 2922
3027 3025 3024 3022 3020 3019 3017 3016 3015 3013 3011 3009 3007 3005 3004 3002 3001 2999 2997 2996 2994 2992 2991 2989 2987 2986 2984 2983 2981 2980 2977 2975 2973 2971 2970 2968 2966 2964 2963 2961 2960 2958 2957 2956 2954 2953 2951 2950 2949 2948 2946 2945 2944 2943 2942 2941 2939 2938 2937 2936 2935 2934 2933 2933 2932 2931 2930 2929 2929 2928 2927 2927 2927 2926 2926 2925 2924 2923 2922 2921 2921 2920 2920 2919 2919 2919
3023 3021 3020 3018 3017 3016 3014 3013 3011 3009 3007 3005 3003 3001 3000 2998 2996 2995 2993 2991 2990 2988 2987 2985 2984 2982 2981 2979 2977 2976 2974 2972 2970 2968 2966 2964 2962 2961 2959 2957 2956 2954 2953 2952 2951 2950 2948 2947 2946 2945 2943 2942 2941 2940 2939 2938 2937 2936 2935 2934 2933 2932 2931 2930 2929 2929 2928 2927 2926 2926 2925 2924 2923 2923 2922 2921 2921 2920 2919 2919 2918 2917 2917 2916 2916 2916
3020 3018 3016 3015 3013 3012 3011 3009 3008 3006 3004 3002 3000 2998 2996 2994 2992 2991 2989 2988 2986 2985 2983 2981 2980 2978 2976 2975 2973 2972 2971 2969 2966 2965 2962 2961 2959 2957 2955 2954 2952 2951 2950 2948 2947 2946 2945 2944 2943 2942 2940 2939 2938 2937 2936 2936 2934 2933 2932 2931 2930 2929 2928 2927 2927 2926 2926 2925 2924 2923 2922 2921 2921 2920 2919 2918 2917 2917 2916 2916 2915 2915 2914 2914 2913 2913
3017 3015 3013 3011 3009 3008 3007 3006 3004 3002 3000 2998 2996 2995 2993 2991 2989 2987 2985 2984 2982 2981 2979 2977 2976 2975 2973 2971 2969 2968 2966 2965 2963 2961 2959 2957 2956 2954 2952 2951 2949 2948 2946 2945 2944 2943 2941 2941 2939 2938 2937 2936 2936 2935 2934 2933 2932 2931 2930 2929 2928 2926 2926 2925 2924 2923 2923 2922 2922 2921 2920 2919 2918 2917 2916 2915 2915 2914 2913 2913 2913 2912 2912 2911 2911 2910
3013 3012 3010 3008 3006 3004 3004 3002 3001 2999 2996 2994 2992 2991 2989 2988 2986 2984 2982 2980 2978 2977 2975 2973 2972 2971 2969 2967 2965 2964 2962 2961 2959 2958 2956 2954 2953 2951 2949 2948 2946 2945 2944 2942 2941 2940 2939 2937 2936 2936 2935 2934 2933 2932 2931 2930 2929 2928 2927 2926 2925 2924 2923 2922 2921 2920 2920 2919 2918 2918 2917 2916 2915 2914 2914 2913 2912 2911 2911 2910 2910 2910 2909 2909 2908 2908
3010 3008 3007 3005 3003 3001 3000 2999 2998 2996 2993 2990 2988 2986 2985 2983 2982 2980 2979 2976 2975 2973 2971 2969 2968 2966 2965 2964 2962 2960 2958 2956 2955 2954 2953 2951 2950 2948 2946 2945 2944 2942 2941 2940 2939 2937 2936 2935 2934 2933 2932 2931 2930 2929 2928 2927 2926 2925 2924 2923 2922 2921 2920 2919 2918 2917 2916 2916 2915 2914 2914 2913 2912 2911 2911 2910 2909 2908 2908 2907 2907 2907 2907 2906 2906 2906
3007 3005 3003 3002 3000 2999 2997 2995 2994 2993 2991 2987 2985 2982 2981 2979 2977 2976 2975 2974 2972 2970 2968 2966 2964 2962 2961 2960 2958 2956 2955 2953 2951 2950 2949 2948 2946 2944 2943 2942 2941 2939 2938 2937 2936 2934 2933 2932 2931 2930 2929 2928 2927 2926 2925 2924 2923 2922 2921 2920 2919 2918 2917 2916 2915 2914 2914 2913 2912 2911 2910 2909 2908 2907 2907 2906 2906 2905 2905 2904 2904 2903 2903 2903 2903 2903
3005 3003 3001 2999 2997 2996 2995 2992 2991 2989 2987 2985 2982 2980 2977 2975 2973 2971 2970 2969 2968 2967 2965 2963 2961 2959 2957 2956 2954 2953 2952 2950 2948 2947 2946 2944 2943 2941 2939 2938 2937 2936 2935 2934 2932 2931 2930 2929 2927 2926 2926 2925 2924 2923 2922 2921 2920 2919 2918 2917 2916 2915 2914 2913 2912 2911 2910 2909 2908 2907 2906 2905 2904 2903 2903 2902 2901 2901 2901 2900 2900 2900 2900 2900 2900 2901
3001 3000 2998 2996 2994 2993 2991 2990 2988 2986 2984 2982 2980 2977 2975 2972 2970 2968 2966 2964 2964 2963 2962 2960 2958 2957 2955 2953 2951 2949 2948 2946 2945 2943 2942 2941 2939 2937 2936 2934 2933 2932 2931 2930 2929 2928 2926 2925 2924 2923 2922 2921 2920 2919 2918 2917 2916 2916 2915 2914 2912 2911 2911 2909 2908 2907 2906 2905 2904 2902 2901 2901 2900 2899 2898 2898 2897 2897 2896 2896 2896 2896 2896 2896 2897 2897
2999 2997 2995 2993 2991 2990 2988 2986 2984 2982 2981 2979 2976 2974 2971 2969 2967 2966 2964 2961 2960 2959 2958 2957 2955 2954 2953 2951 2948 2945 2943 2942 2941 2939 2938 2936 2935 2934 2932 2931 2929 2928 2927 2926 2925 2924 2923 2921 2920 2919 2918 2917 2916 2915 2915 2913 2913 2912 2911 2910 2909 2907 2906 2905 2904 2902 2901 2900 2899 2898 2897 2896 2896 2895 2894 2894 2893 2893 2892 2892 2892 2892 2892 2893 2893 2894
2995 2993 2991 2990 2988 2987 2985 2983 2981 2979 2977 2975 2973 2971 2968 2966 2964 2963 2961 2959 2957 2956 2955 2953 2951 2950 2949 2948 2946 2943 2940 2938 2937 2936 2935 2933 2931 2930 2929 2927 2926 2925 2923 2922 2921 2920 2919 2918 2916 2915 2914 2913 2912 2911 2911 2910 2909 2908 2907 2906 2905 2903 2902 2901 2899 2898 2897 2896 2894 2893 2892 2891 2891 2890 2890 2889 2889 2889 2889 2889 2888 2888 2888 2889 2889 2890
2991 2990 2988 2986 2985 2983 2981 2980 2977 2975 2973 2972 2970 2968 2966 2963 2962 2960 2958 2956 2954 2953 2952 2950 2948 2947 2946 2944 2942 2940 2937 2935 2933 2932 2931 2930 2929 2927 2925 2923 2922 2921 2920 2918 2917 2916 2915 2914 2912 2911 2911 2910 2909 2908 2907 2906 2905 2904 2903 2901 2900 2899 2897 2896 2895 2894 2892 2891 2890 2889 2888 2887 2886 2885 2885 2885 2885 2885 2885 2885 2885 2885 2885 2885 2885 2886
2988 2986 2984 2982 2981 2980 2978 2976 2974 2972 2970 2969 2967 2965 2963 2961 2959 2957 2956 2954 2951 2950 2949 2947 2945 2944 2942 2941 2940 2937 2935 2932 2930 2929 2928 2927 2926 2925 2922 2920 2919 2918 2917 2915 2913 2912 2911 2910 2909 2907 2906 2906 2905 2904 2903 2901 2900 2899 2898 2897 2896 2894 2893 2892 2891 2890 2889 2887 2886 2885 2884 2883 2882 2881 2881 2881 2881 2881 2882 2881 2881 2880 2881 2881 2881 2882
2984 2982 2980 2979 2977 2976 2975 2973 2972 2970 2968 2966 2964 2963 2961 2959 2957 2955 2953 2951 2949 2947 2946 2944 2942 2940 2939 2939 2938 2936 2933 2930 2927 2926 2925 2923 2922 2921 2920 2917 2915 2914 2913 2912 2910 2909 2908 2906 2905 2904 2903 2901 2901 2900 2898 2897 2896 2895 2894 2893 2891 2891 2890 2889 2887 2886 2885 2884 2883 2882 2881 2880 2879 2879 2878 2878 2878 2878 2878 2878 2877 2877 2877 2878 2878 2878
2981 2979 2977 2976 2974 2973 2972 2971 2969 2967 2966 2964 2962 2960 2959 2957 2955 2953 2951 2949 2946 2945 2943 2941 2939 2937 2935 2934 2934 2934 2932 2928 2925 2923 2922 2920 2919 2918 2916 2914 2912 2910 2910 2908 2907 2906 2904 2903 2901 2900 2899 2898 2897 2896 2894 2893 2892 2891 2890 2889 2888 2887 2886 2886 2885 2884 2882 2881 2881 2880 2879 2878 2877 2876 2876 2875 2875 2875 2874 2874 2874 2874 2874 2874 2874 2875
2978 2976 2975 2973 2972 2971 2970 2969 2967 2965 2963 2961 2960 2958 2956 2955 2953 2951 2949 2947 2945 2943 2941 2939 2937 2936 2933 2931 2930 2930 2929 2926 2923 2920 2919 2917 2916 2915 2914 2912 2910 2908 2906 2906 2904 2903 2901 2900 2898 2897 2896 2894 2893 2892 2891 2890 2889 2888 2887 2886 2886 2885 2884 2883 2882 2881 2880 2879 2878 2877 2877 2876 2875 2875 2874 2873 2873 2872 2871 2871 2871 2871 2872 2872 2872 2872
2976 2974 2973 2972 2970 2968 2967 2966 2966 2964 2961 2959 2957 2956 2954 2952 2951 2949 2947 2945 2944 2942 2939 2937 2935 2934 2932 2930 2928 2927 2926 2924 2921 2918 2916 2914 2913 2912 2911 2909 2907 2905 2904 2903 2902 2900 2899 2897 2896 2895 2893 2892 2890 2889 2888 2887 2886 2886 2885 2884 2883 2883 2882 2881 2880 2879 2878 2877 2876 2876 2875 2874 2873 2872 2872 2871 2870 2870 2869 2869 2868 2868 2869 2869 2869 2869
2973 2972 2971 2970 2968 2966 2965 2964 2963 2962 2960 2957 2955 2953 2952 2950 2948 2947 2945 2943 2941 2939 2937 2936 2933 2931 2930 2928 2926 2924 2923 2921 2918 2915 2913 2912 2911 2910 2909 2907 2905 2903 2901 2901 2900 2898 2897 2895 2894 2892 2891 2890 2888 2887 2886 2886 2885 2884 2883 2882 2881 2881 2880 2879 2878 2877 2876 2876 2875 2874 2873 2872 2871 2870 2869 2869 2868 2867 2867 2866 2866 2866 2866 2866 2866 2866
2971 2970 2968 2968 2966 2965 2963 2962 2961 2960 2958 2956 2953 2951 2950 2948 2946 2945 2943 2941 2939 2937 2935 2934 2931 2930 2928 2926 2924 2922 2921 2918 2915 2912 2911 2909 2908 2907 2906 2904 2902 2901 2899 2899 2898 2897 2895 2894 2892 2891 2889 2888 2887 2886 2885 2884 2883 2882 2881 2881 2880 2879 2878 2877 2876 2876 2875 2874 2873 2872 2871 2870 2869 2868 2867 2866 2866 2865 2864 2864 2864 2863 2863 2863 2863 2864
2969 2968 2966 2965 2964 2963 2961 2960 2959 2958 2956 2954 2952 2951 2948 2946 2944 2942 2940 2939 2937 2935 2933 2931 2930 2928 2926 2924 2922 2921 2919 2916 2913 2911 2908 2906 2904 2904 2904 2902 2900 2899 2897 2897 2896 2895 2894 2892 2891 2889 2888 2887 2886 2884 2883 2882 2881 2881 2880 2879 2879 2878 2877 2876 2875 2874 2873 2872 2871 2870 2869 2868 2867 2866 2865 2864 2863 2863 2862 2861 2861 2861 2861 2861 2861 2861
2967 2966 2965 2963 2962 2961 2960 2958 2957 2956 2954 2953 2951 2950 2947 2945 2942 2940 2938 2936 2935 2933 2931 2930 2928 2926 2925 2923 2921 2919 2916 2914 2912 2909 2906 2904 2902 2901 2901 2900 2898 2897 2896 2895 2894 2893 2892 2891 2890 2888 2887 2886 2884 2883 2882 2881 2880 2879 2879 2878 2877 2876 2876 2875 2874 2872 2871 2871 2869 2868 2867 2866 2865 2864 2863 2862 2861 2860 2860 2859 2859 2859 2859 2859 2858 2859
2965 2964 2963 2961 2960 2959 2958 2956 2955 2954 2952 2951 2949 2947 2945 2942 2941 2939 2937 2935 2933 2931 2929 2927 2926 2924 2922 2921 2919 2916 2915 2913 2910 2907 2905 2902 2901 2900 2899 2898 2896 2895 2894 2894 2893 2892 2891 2890 2888 2887 2886 2884 2883 2882 2881 2880 2879 2878 2877 2877 2876 2875 2874 2873 2872 2871 2870 2869 2868 2866 2865 2864 2863 2862 2861 2860 2859 2858 2858 2857 2857 2857 2856 2856 2856 2856
2963 2962 2961 2959 2958 2957 2956 2954 2953 2952 2951 2949 2947 2944 2942 2940 2939 2938 2936 2935 2932 2930 2928 2926 2924 2922 2920 2918 2916 2914 2913 2911 2908 2906 2903 2901 2899 2898 2898 2897 2895 2894 2893 2892 2891 2891 2890 2888 2887 2886 2885 2883 2882 2881 2880 2879 2878 2877 2876 2876 2875 2874 2873 2871 2871 2869 2868 2867 2866 2865 2863 2862 2861 2860 2859 2858 2857 2856 2856 2855 2855 2855 2855 2854 2854 2854
2961 2960 2958 2957 2956 2955 2953 2952 2951 2950 2948 2946 2944 2942 2941 2939 2938 2936 2935 2933 2931 2928 2926 2924 2921 2920 2918 2916 2914 2912 2910 2909 2907 2904 2902 2900 2898 2897 2896 2895 2894 2892 2891 2891 2890 2889 2888 2887 2886 2885 2884 2882 2881 2880 2879 2878 2877 2876 2876 2875 2874 2872 2871 2870 2869 2868 2866 2866 2864 2863 2862 2861 2860 2859 2858 2857 2856 2855 2854 2854 2853 2853 2852 2852 2852 2852
2958 2957 2956 2955 2953 2952 2951 2950 2949 2947 2946 2944 2943 2941 2940 2938 2936 2934 2933 2931 2929 2926 2924 2921 2919 2917 2915 2913 2911 2909 2908 2907 2905 2903 2901 2899 2897 2896 2895 2894 2893 2891 2890 2889 2889 2888 2887 2886 2885 2884 2883 2881 2880 2879 2878 2877 2876 2876 2875 2874 2873 2871 2870 2869 2868 2867 2866 2864 2863 2862 2861 2860 2858 2857 2856 2856 2855 2854 2853 2852 2851 2851 2851 2851 2851 2851
2956 2955 2954 2953 2951 2950 2949 2948 2946 2945 2944 2943 2941 2940 2938 2936 2934 2932 2930 2928 2926 2924 2922 2920 2917 2914 2912 2910 2909 2907 2906 2905 2903 2901 2900 2898 2896 2895 2894 2892 2891 2890 2889 2888 2887 2887 2886 2885 2884 2883 2882 2881 2880 2879 2878 2877 2876 2875 2874 2873 2872 2871 2870 2868 2867 2866 2865 2864 2862 2861 2860 2859 2858 2857 2856 2855 2853 2852 2851 2851 2850 2850 2849 2849 2849 2850
2954 2953 2952 2951 2950 2948 2947 2946 2944 2943 2942 2941 2940 2938 2937 2935 2933 2930 2928 2926 2924 2922 2920 2917 2915 2913 2911 2908 2906 2906 2905 2904 2902 2901 2898 2896 2895 2894 2893 2891 2890 2889 2888 2886 2886 2886 2886 2885 2883 2882 2881 2880 2879 2878 2877 2876 2876 2875 2874 2873 2871 2870 2869 2868 2867 2866 2864 2863 2862 2861 2859 2858 2857 2856 2855 2854 2853 2852 2851 2850 2849 2849 2848 2848 2848 2848
2952 2951 2950 2949 2947 2946 2945 2943 2942 2941 2940 2939 2938 2936 2935 2933 2931 2928 2926 2924 2922 2920 2917 2916 2913 2911 2909 2906 2905 2904 2903 2903 2902 2900 2897 2896 2894 2892 2891 2890 2889 2888 2886 2885 2884 2883 2884 2884 2883 2881 2880 2879 2878 2877 2876 2876 2875 2874 2873 2872 2871 2870 2869 2867 2866 2865 2864 2863 2861 2860 2859 2858 2856 2855 2854 2853 2852 2851 2850 2849 2849 2848 2847 2847 2847 2847
2950 2949 2947 2946 2945 2944 2942 2941 2940 2939 2938 2937 2936 2935 2933 2931 2929 2927 2925 2922 2920 2918 2916 2914 2911 2909 2907 2905 2903 2902 2901 2901 2901 2899 2896 2895 2893 2891 2890 2889 2888 2887 2886 2885 2883 2881 2881 2881 2881 2881 2880 2879 2878 2877 2876 2875 2874 2873 2872 2871 2870 2869 2868 2867 2866 2865 2864 2863 2861 2860 2859 2857 2856 2855 2853 2852 2851 2851 2850 2849 2848 2847 2847 2846 2846 2846
2947 2946 2945 2944 2943 2941 2940 2939 2937 2937 2936 2935 2934 2933 2931 2929 2927 2925 2923 2921 2919 2916 2914 2912 2910 2908 2906 2904 2903 2901 2900 2900 2899 2897 2896 2894 2892 2891 2889 2888 2887 2886 2886 2884 2883 2881 2880 2879 2879 2880 2879 2878 2877 2876 2875 2874 2873 2872 2871 2871 2870 2868 2867 2866 2865 2864 2863 2862 2861 2860 2858 2857 2856 2854 2853 2852 2851 2850 2849 2848 2848 2847 2846 2846 2845 2845
2944 2944 2943 2942 2941 2940 2938 2937 2936 2935 2934 2933 2932 2931 2930 2928 2926 2924 2922 2920 2917 2915 2912 2910 2908 2906 2905 2903 2902 2901 2900 2899 2898 2896 2895 2893 2891 2890 2888 2887 2886 2886 2885 2884 2883 2882 2881 2879 2878 2878 2878 2877 2876 2876 2875 2874 2873 2872 2871 2870 2869 2868 2866 2866 2865 2864 2863 2862 2861 2860 2858 2857 2856 2854 2853 2852 2851 2850 2849 2848 2847 2846 2846 2845 2844 2844
2942 2941 2941 2940 2939 2937 2936 2935 2934 2933 2932 2932 2931 2930 2928 2926 2925 2923 2921 2918 2916 2914 2911 2909 2906 2905 2903 2902 2901 2900 2899 2898 2897 2895 2894 2892 2891 2889 2887 2887 2886 2885 2884 2883 2882 2881 2881 2879 2878 2877 2876 2876 2876 2875 2874 2873 2872 2871 2870 2869 2868 2867 2866 2865 2864 2863 2862 2861 2860 2859 2858 2856 2855 2854 2853 2852 2851 2850 2848 2848 2847 2846 2846 2845 2844 2843
2939 2939 2938 2937 2937 2936 2935 2934 2932 2931 2931 2930 2929 2928 2927 2925 2924 2922 2920 2917 2915 2912 2910 2907 2905 2904 2902 2901 2900 2899 2898 2897 2896 2894 2892 2891 2890 2888 2887 2886 2885 2884 2883 2882 2881 2881 2880 2879 2878 2877 2876 2875 2875 2874 2873 2873 2872 2871 2870 2868 2867 2866 2865 2864 2863 2862 2861 2861 2859 2858 2857 2856 2855 2853 2852 2851 2850 2849 2848 2847 2846 2845 2845 2844 2844 2843
2937 2937 2937 2936 2936 2934 2933 2931 2930 2929 2929 2928 2927 2926 2925 2924 2922 2921 2918 2916 2914 2911 2909 2906 2904 2903 2901 2900 2899 2897 2896 2896 2894 2893 2891 2890 2889 2887 2886 2886 2885 2883 2882 2881 2881 2880 2879 2878 2878 2877 2876 2875 2874 2873 2873 2872 2871 2871 2869 2868 2867 2866 2865 2863 2862 2861 2861 2860 2859 2857 2856 2855 2854 2853 2852 2851 2850 2849 2847 2846 2846 2845 2844 2843 2843 2842
2936 2936 2936 2935 2934 2932 2930 2928 2927 2927 2927 2926 2926 2925 2924 2922 2921 2919 2917 2915 2913 2910 2908 2906 2904 2902 2901 2899 2898 2896 2895 2894 2893 2891 2890 2889 2888 2887 2886 2885 2884 2883 2882 2881 2880 2880 2879 2878 2877 2876 2875 2874 2873 2873 2872 2871 2871 2870 2869 2868 2867 2866 2865 2863 2862 2861 2860 2859 2858 2857 2856 2854 2853 2852 2851 2850 2849 2848 2847 2846 2845 2844 2843 2842 2842 2841
2934 2934 2934 2933 2931 2929 2927 2926 2926 2926 2925 2925 2924 2923 2922 2920 2919 2917 2916 2914 2911 2909 2907 2905 2903 2901 2900 2898 2897 2896 2895 2893 2892 2891 2889 2888 2887 2886 2885 2884 2884 2883 2882 2881 2880 2879 2878 2877 2876 2876 2875 2874 2873 2872 2871 2871 2870 2869 2869 2868 2867 2866 2864 2863 2862 2861 2859 2858 2857 2856 2855 2854 2852 2851 2850 2849 2848 2847 2846 2845 2844 2843 2842 2842 2841 2840
2930 2930 2930 2929 2928 2926 2925 2924 2924 2924 2923 2923 2922 2921 2920 2918 2917 2916 2914 2912 2910 2908 2906 2904 2902 2901 2899 2898 2896 2895 2894 2892 2891 2890 2888 2887 2886 2886 2885 2884 2883 2882 2882 2881 2880 2879 2878 2877 2876 2875 2874 2873 2873 2872 2871 2870 2869 2868 2868 2867 2866 2866 2864 2863 2861 2860 2859 2858 2856 2855 2854 2853 2851 2850 2849 2848 2847 2846 2845 2845 2844 2843 2842 2841 2840 2840
2927 2927 2926 2926 2925 2924 2923 2922 2922 2921 2921 2920 2919 2918 2917 2916 2915 2914 2912 2911 2909 2907 2905 2903 2901 2900 2898 2897 2896 2895 2893 2891 2890 2889 2888 2886 2886 2885 2884 2883 2883 2882 2881 2881 2880 2879 2877 2876 2876 2875 2874 2873 2872 2871 2871 2870 2868 2867 2866 2866 2866 2865 2864 2862 2861 2860 2858 2857 2856 2854 2853 2852 2851 2850 2848 2847 2846 2845 2844 2843 2843 2842 2841 2841 2840 2839
2925 2924 2924 2924 2923 2922 2921 2921 2920 2919 2919 2918 2917 2916 2915 2915 2914 2912 2911 2909 2908 2906 2904 2902 2900 2899 2897 2896 2895 2893 2892 2891 2889 2888 2887 2886 2885 2884 2884 2883 2882 2882 2881 2881 2880 2878 2877 2876 2875 2874 2873 2872 2872 2871 2870 2869 2868 2866 2866 2865 2864 2863 2863 2862 2861 2859 2858 2856 2855 2853 2852 2851 2850 2849 2847 2846 2845 2844 2843 2842 2842 2841 2841 2840 2839 2838
2922 2922 2922 2923 2922 2921 2919 2918 2917 2917 2916 2916 2915 2914 2914 2913 2911 2911 2909 2908 2906 2905 2903 2901 2900 2898 2897 2896 2894 2893 2891 2890 2888 2887 2886 2886 2885 2884 2883 2883 2882 2881 2881 2880 2879 2878 2877 2876 2875 2874 2873 2872 2871 2871 2870 2869 2867 2866 2865 2864 2863 2862 2862 2861 2860 2859 2857 2856 2854 2852 2851 2850 2849 2847 2846 2846 2845 2843 2842 2841 2841 2840 2840 2839 2838 2838
2919 2920 2921 2922 2921 2919 2917 2916 2916 2915 2915 2914 2913 2912 2911 2911 2910 2909 2907 2906 2905 2903 2901 2900 2898 2897 2896 2895 2894 2892 2891 2889 2887 2886 2886 2885 2884 2883 2883 2882 2881 2881 2880 2879 2878 2878 2877 2876 2874 2873 2872 2871 2871 2870 2869 2868 2867 2866 2865 2864 2863 2861 2861 2860 2859 2858 2856 2855 2853 2852 2850 2849 2848 2847 2846 2845 2844 2843 2842 2841 2841 2840 2839 2838 2838 2837
2917 2917 2919 2918 2917 2916 2915 2914 2913 2913 2913 2912 2911 2911 2910 2909 2908 2907 2906 2904 2903 2901 2900 2898 2897 2896 2894 2893 2892 2891 2890 2888 2887 2886 2885 2884 2883 2883 2882 2881 2881 2880 2879 2878 2878 2877 2876 2876 2874 2873 2872 2871 2870 2869 2868 2868 2867 2866 2865 2864 2863 2861 2860 2859 2857 2856 2855 2854 2853 2851 2850 2848 2847 2846 2845 2844 2843 2842 2841 2841 2840 2839 2838 2838 2837 2836
2914 2914 2915 2914 2914 2913 2912 2912 2911 2911 2911 2911 2910 2909 2908 2907 2906 2905 2904 2903 2901 2900 2898 2897 2896 2894 2893 2892 2891 2890 2889 2888 2886 2885 2884 2883 2883 2882 2881 2880 2880 2879 2878 2877 2877 2876 2876 2875 2874 2873 2872 2871 2870 2869 2868 2867 2866 2866 2865 2864 2862 2861 2860 2859 2857 2856 2854 2853 2852 2851 2849 2848 2846 2845 2844 2843 2842 2841 2841 2840 2840 2839 2838 2837 2837 2836
2912 2911 2911 2911 2911 2911 2910 2910 2910 2910 2909 2909 2908 2907 2906 2905 2904 2903 2902 2901 2900 2898 2897 2896 2894 2893 2891 2891 2890 2889 2888 2886 2886 2885 2884 2883 2882 2881 2881 2880 2879 2878 2877 2876 2876 2876 2875 2874 2873 2873 2871 2871 2870 2868 2867 2866 2866 2865 2864 2863 2862 2861 2860 2859 2857 2856 2855 2853 2851 2850 2848 2847 2846 2844 2843 2842 2842 2841 2840 2840 2839 2839 2838 2837 2837 2836
2910 2910 2910 2910 2909 2909 2909 2908 2908 2908 2907 2906 2906 2905 2904 2904 2903 2902 2901 2900 2898 2897 2896 2894 2893 2891 2890 2889 2888 2887 2886 2886 2885 2884 2883 2882 2881 2881 2880 2879 2878 2877 2876 2876 2875 2874 2874 2874 2873 2872 2871 2870 2869 2868 2867 2866 2865 2864 2864 2863 2861 2861 2860 2859 2857 2856 2855 2853 2851 2849 2848 2846 2845 2844 2843 2842 2841 2841 2840 2840 2839 2838 2838 2837 2836 2836
2907 2908 2908 2908 2908 2907 2907 2907 2906 2906 2905 2904 2904 2903 2903 2902 2901 2900 2899 2898 2897 2896 2894 2893 2891 2890 2889 2888 2887 2886 2885 2885 2884 2883 2882 2882 2881 2881 2880 2879 2878 2877 2876 2875 2874 2873 2873 2873 2872 2871 2871 2870 2869 2868 2867 2866 2865 2864 2863 2862 2861 2861 2860 2859 2857 2856 2855 2853 2851 2849 2847 2846 2844 2843 2843 2842 2841 2841 2840 2839 2839 2838 2838 2837 2836 2836
2905 2906 2906 2906 2906 2906 2905 2905 2904 2903 2903 2902 2902 2901 2901 2900 2900 2899 2897 2896 2896 2894 2893 2892 2890 2889 2888 2887 2886 2885 2884 2883 2883 2882 2881 2881 2880 2880 2879 2879 2878 2877 2876 2874 2873 2872 2871 2871 2871 2871 2870 2869 2869 2868 2867 2866 2865 2864 2863 2862 2861 2861 2860 2859 2857 2856 2855 2853 2851 2849 2847 2846 2845 2843 2843 2842 2841 2841 2840 2839 2839 2838 2838 2837 2836 2836
2903 2904 2905 2905 2905 2904 2903 2902 2902 2901 2901 2901 2901 2900 2900 2899 2898 2897 2896 2895 2894 2893 2892 2891 2889 2888 2887 2886 2885 2884 2883 2882 2882 2881 2881 2880 2880 2879 2878 2878 2877 2877 2876 2875 2873 2872 2871 2870 2870 2870 2870 2869 2868 2867 2867 2866 2865 2864 2863 2862 2861 2861 2860 2859 2857 2856 2854 2853 2851 2849 2847 2846 2845 2844 2843 2842 2842 2841 2840 2840 2839 2838 2838 2837 2837 2836
2902 2902 2903 2903 2902 2901 2901 2900 2900 2900 2899 2899 2899 2898 2898 2897 2896 2895 2895 2894 2893 2892 2891 2889 2888 2886 2886 2884 2884 2883 2882 2881 2881 2880 2880 2879 2879 2878 2878 2877 2876 2876 2875 2874 2873 2872 2871 2870 2870 2870 2869 2869 2868 2867 2866 2865 2864 2864 2863 2862 2861 2861 2860 2859 2857 2856 2854 2852 2851 2849 2847 2846 2845 2844 2843 2843 2842 2841 2841 2840 2839 2839 2838 2838 2837 2837